This is the latest recevied weather packets stored in our database for station/object N3LF. If no packets are shown the sender has not sent any weather packets the latest 10 day(s).
| Time | Temp. | Humidity | Pressure | Rain* | Wind** | Luminosity | Snow |
|---|---|---|---|---|---|---|---|
| 1777849992 | 20° C | 39% | 1018 hPa | 0 mm | - | 100 W/m² | - |
| 1777849688 | 20° C | 40% | 1017.8 hPa | 0 mm | - | 111 W/m² | - |
| 1777849385 | 20.56° C | 38% | 1018.2 hPa | 0 mm | - | 120 W/m² | - |
| 1777849083 | 20.56° C | 38% | 1018.3 hPa | 0 mm | - | 134 W/m² | - |
| 1777848778 | 20.56° C | 38% | 1018.3 hPa | 0 mm | - | 146 W/m² | - |
| 1777848475 | 20.56° C | 40% | 1018.6 hPa | 0 mm | - | 159 W/m² | - |
| 1777848172 | 20.56° C | 39% | 1018.4 hPa | 0 mm | - | 172 W/m² | - |
| 1777847870 | 21.11° C | 39% | 1018.4 hPa | 0 mm | - | 185 W/m² | - |
| 1777847568 | 20.56° C | 39% | 1018.4 hPa | 0 mm | - | 200 W/m² | - |
| 1777847263 | 20.56° C | 40% | 1018.5 hPa | 0 mm | - | 210 W/m² | - |
| 1777846961 | 21.11° C | 38% | 1018.5 hPa | 0 mm | - | 225 W/m² | - |
| 1777846660 | 21.11° C | 39% | 1018.7 hPa | 0 mm | - | 237 W/m² | - |
| 1777846357 | 21.11° C | 40% | 1018.7 hPa | 0 mm | - | 253 W/m² | - |
| 1777846053 | 20.56° C | 39% | 1018.8 hPa | 0 mm | - | 268 W/m² | - |
| 1777845751 | 21.67° C | 37% | 1018.9 hPa | 0 mm | - | 282 W/m² | - |
| 1777845447 | 21.67° C | 37% | 1018.8 hPa | 0 mm | - | 297 W/m² | - |
| 1777845144 | 21.67° C | 38% | 1018.9 hPa | 0 mm | - | 311 W/m² | - |
| 1777844843 | 21.11° C | 40% | 1019 hPa | 0 mm | - | 326 W/m² | - |
| 1777844539 | 21.11° C | 39% | 1019.2 hPa | 0 mm | - | 341 W/m² | - |
| 1777844237 | 21.67° C | 37% | 1019.1 hPa | 0 mm | - | 355 W/m² | - |
| 1777843934 | 21.11° C | 38% | 1019.3 hPa | 0 mm | - | 369 W/m² | - |
| 1777843631 | 20.56° C | 37% | 1019.4 hPa | 0 mm | - | 383 W/m² | - |
| 1777843328 | 20.56° C | 39% | 1019.4 hPa | 0 mm | - | 398 W/m² | - |
| 1777843026 | 20.56° C | 39% | 1019.5 hPa | 0 mm | - | 412 W/m² | - |
| 1777842721 | 20.56° C | 37% | 1019.5 hPa | 0 mm | - | 428 W/m² | - |
* Rain latest hour (hover to see other rain measurements)
** Current wind speed in m/s (hover to see current wind gust speed)